Theta_e
310 310 311 312 312 313 313 313 312 312 312 313 314 317 319 321 319 312 305 312 315 322 317 307 305 303 300 295 295 293 284 284 286 288 292 293 290 292 293 294 293 296 295 300 307
308 308 309 309 310 310 311 312 311 312 312 312 313 314 316 319 311 306 315 322 324 325 307 302 299 300 293 293 293 289 284 287 292 293 293 294 292 293 291 291 290 294 303 307 311
307 307 307 308 308 309 309 309 309 310 311 312 312 312 314 315 304 303 318 319 324 323 308 305 303 299 292 293 291 290 287 292 293 295 295 293 292 293 291 288 292 293 300 305 306
307 306 307 307 307 307 307 308 308 309 309 310 311 312 314 311 289 306 322 318 324 315 308 303 300 294 291 289 293 288 292 293 295 296 295 293 292 292 291 293 297 295 303 305 306
306 305 305 305 306 306 307 307 307 307 308 309 309 310 305 300 300 311 318 319 314 310 305 302 297 295 290 292 293 290 292 294 295 295 293 294 291 291 290 294 295 297 299 303 305
305 305 305 305 305 306 306 306 306 306 307 307 308 309 298 289 308 311 311 312 312 308 303 301 297 298 293 293 292 294 294 295 295 295 294 292 291 290 291 295 293 295 296 299 302
305 305 305 305 305 305 305 306 306 306 307 307 307 303 296 292 309 310 310 305 312 308 302 302 300 296 295 291 296 294 290 293 294 293 291 292 288 287 294 294 294 293 293 297 299
305 304 303 304 304 304 305 305 305 306 307 308 308 301 291 303 303 303 308 306 308 308 305 303 300 296 294 295 293 289 288 285 292 293 293 290 285 291 294 293 293 293 290 293 296
303 303 304 304 304 304 304 305 307 306 308 309 300 296 288 305 301 305 307 303 306 306 302 303 298 292 292 287 283 284 279 282 287 293 292 290 287 293 295 293 292 294 292 292 293
303 304 304 304 304 304 306 305 305 302 300 302 301 293 295 293 301 302 308 307 304 303 297 295 292 288 285 284 278 281 280 284 284 290 291 290 288 290 293 293 292 293 293 291 292
303 304 304 304 304 304 301 295 287 286 289 285 285 285 287 291 296 297 303 301 302 298 288 290 284 281 284 286 287 287 284 284 287 291 290 289 289 290 294 291 289 290 290 291 291
303 303 303 303 303 303 298 288 288 291 283 289 289 288 290 291 285 289 298 292 294 289 290 286 281 287 288 288 286 286 283 283 288 291 289 288 288 289 291 292 292 291 290 290 290
303 303 303 302 302 297 291 290 296 294 282 283 287 286 287 290 285 286 294 292 289 288 287 283 285 289 287 286 285 285 283 283 283 287 289 287 285 286 289 291 292 292 294 293 291
303 302 302 302 294 292 289 295 296 293 275 276 282 286 289 290 284 292 292 290 289 285 288 285 289 286 285 284 285 281 287 286 284 281 278 287 278 286 288 289 292 294 292 292 292
302 302 301 302 293 289 292 296 295 289 262 277 282 296 290 286 286 289 294 290 283 285 286 283 285 284 284 285 287 283 288 286 284 283 282 282 280 283 288 288 291 293 294 294 295
302 302 302 296 292 293 296 295 289 272 261 275 281 280 280 282 283 288 288 293 290 285 286 285 291 288 288 289 288 289 285 285 284 283 276 280 281 280 284 287 290 293 294 296 294
301 302 300 297 288 295 296 287 270 265 274 270 275 279 278 277 279 282 282 281 281 277 276 280 283 288 291 284 287 285 283 275 274 274 273 281 280 282 285 290 292 292 293 295 296
301 301 296 294 295 294 291 279 264 264 267 278 277 278 273 277 278 278 278 277 283 281 278 274 270 281 288 284 283 284 283 276 270 266 273 279 276 281 289 291 292 292 288 290 291
300 292 290 292 295 292 283 266 262 271 277 276 276 272 272 278 278 278 276 275 281 282 276 276 275 284 285 288 287 282 280 283 274 266 273 274 279 284 287 284 284 282 287 288 287
291 287 287 294 294 285 277 271 269 279 279 278 272 273 265 270 269 273 273 279 279 283 286 282 275 282 282 286 286 281 284 277 279 270 270 274 273 276 282 280 283 281 283 285 286
285 281 287 295 290 276 271 265 275 282 282 278 275 272 273 272 273 271 275 280 283 284 286 283 280 275 284 281 280 281 281 281 279 279 272 271 274 278 281 275 278 278 283 283 284
284 277 288 291 275 268 268 275 282 279 282 281 281 276 274 274 272 274 275 278 285 284 277 284 277 272 278 281 282 282 282 280 276 269 271 270 276 276 270 269 276 279 282 282 282
282 282 288 287 266 268 275 276 278 277 278 280 279 280 280 276 272 273 276 283 285 283 279 281 279 273 271 276 281 279 280 281 279 277 275 270 273 271 279 280 281 277 279 281 281
283 275 275 283 278 273 272 273 272 280 280 282 281 282 279 271 274 271 276 281 284 283 286 286 279 273 269 273 277 274 276 282 281 278 278 279 280 271 274 272 274 279 281 281 280
284 276 275 268 271 274 275 275 275 276 281 283 278 278 277 271 264 267 275 278 281 284 284 283 276 272 275 274 274 274 277 280 279 280 278 278 277 275 276 271 273 272 278 280 279
280 276 275 276 278 276 276 272 275 277 278 275 277 279 279 271 272 273 275 278 278 281 281 283 273 272 271 272 269 269 272 277 278 280 281 281 281 281 277 273 276 274 272 278 278
287 287 282 276 274 273 274 275 276 279 280 282 281 278 272 278 279 282 282 281 280 278 278 278 274 272 268 270 274 266 269 272 275 281 280 277 277 279 279 279 280 279 276 276 276
Wind_Speed
24 23 24 23 22 21 22 22 21 21 22 22 22 23 23 17 15 10 12 11 10 12 4 4 4 6 3 5 5 3 1 7 10 9 13 3 2 1 2 6 2 4 3 5 16
23 24 24 24 24 23 22 22 23 23 23 23 23 21 22 22 11 15 16 17 16 14 5 8 8 7 4 6 4 6 6 11 7 9 7 5 7 8 5 4 2 5 6 7 15
22 22 23 23 24 24 25 25 25 25 25 23 23 23 22 18 9 7 2 5 13 16 8 4 7 7 7 4 7 7 12 14 10 8 2 5 7 7 7 4 8 10 11 9 6
22 23 24 23 24 24 25 26 26 26 25 25 24 23 22 5 10 5 2 6 6 8 4 3 6 7 8 12 9 8 12 15 13 9 8 6 4 5 7 9 6 10 22 17 15
23 23 23 23 25 26 26 26 27 27 27 26 25 22 10 9 18 18 24 2 4 3 11 12 8 8 12 6 12 10 8 13 13 8 6 7 8 7 5 10 7 7 13 16 16
22 23 24 25 26 26 27 29 29 30 29 28 25 23 5 22 6 13 12 7 8 7 8 9 8 10 8 9 16 5 14 15 14 15 7 7 12 5 3 10 6 8 14 14 16
22 23 24 24 25 26 28 29 29 31 32 32 26 13 17 32 4 6 11 10 8 6 10 5 6 4 1 13 14 8 15 14 13 5 8 6 13 10 16 7 8 10 11 13 17
23 25 25 26 26 28 29 30 31 33 34 33 24 13 17 5 14 23 21 9 7 7 6 5 4 5 6 4 8 5 6 17 10 9 6 8 21 10 16 14 18 15 10 12 15
24 24 25 26 27 29 30 32 31 31 32 27 11 9 15 7 5 17 13 20 13 13 7 5 3 8 4 6 5 7 6 5 8 7 6 18 18 18 14 11 17 18 13 12 10
24 25 26 27 28 28 30 33 28 25 10 7 5 4 9 7 4 13 11 17 15 11 9 10 7 8 6 12 23 16 5 11 10 6 16 22 23 3 8 7 13 16 12 10 13
24 26 27 28 28 30 25 8 9 6 7 6 17 17 34 28 17 14 7 11 18 15 16 16 11 16 25 24 18 15 15 19 11 13 15 19 24 18 17 8 7 8 9 11 12
25 26 26 28 29 29 10 6 10 8 19 13 20 29 36 13 18 27 13 12 15 27 19 11 19 25 21 16 17 15 17 21 13 9 6 13 19 8 17 17 13 10 10 10 7
26 25 26 29 30 13 7 14 5 6 12 17 18 16 11 12 27 33 9 11 11 25 21 26 17 24 20 18 20 21 21 21 15 1 4 4 18 11 7 7 7 11 13 12 13
26 26 27 29 13 5 13 10 8 2 7 10 6 6 5 11 8 16 19 17 8 6 15 20 26 18 20 22 21 21 21 19 17 4 14 12 17 17 8 15 18 20 11 14 16
26 26 28 25 14 9 9 11 6 3 7 9 6 5 9 5 10 7 21 15 24 22 6 3 14 23 18 23 22 18 16 12 12 13 10 10 7 15 9 22 27 20 20 19 19
27 28 29 14 6 12 12 4 1 3 10 7 9 19 18 23 14 9 5 10 7 20 16 24 5 6 26 16 15 10 4 2 3 12 18 20 15 26 13 24 17 19 20 23 20
28 28 24 11 8 8 3 1 2 5 8 9 6 17 20 26 22 13 9 3 9 14 20 28 29 6 4 6 2 7 8 8 9 11 13 16 15 25 7 20 21 18 16 18 18
28 28 13 9 9 2 3 2 4 8 9 9 13 19 10 20 5 8 6 7 8 10 4 15 11 23 18 13 3 19 22 10 12 6 10 5 10 15 19 21 26 20 7 6 10
25 5 7 5 5 4 1 2 9 7 7 14 19 16 12 5 2 3 4 7 2 5 7 8 11 1 10 12 21 7 12 9 4 2 4 4 6 10 12 9 10 6 8 12 10
6 4 5 5 2 4 2 12 9 16 21 19 13 7 4 5 5 6 4 2 5 6 9 3 6 8 2 5 5 12 8 5 6 14 20 7 4 7 12 10 9 8 8 7 8
2 5 5 2 4 3 4 8 8 11 15 7 4 7 6 8 5 4 7 6 3 7 5 2 5 3 11 9 14 6 8 5 3 8 13 7 5 9 14 2 8 6 5 7 9
2 5 4 2 3 2 3 5 19 22 20 16 10 8 9 4 4 6 6 4 5 3 10 4 3 4 3 0 1 2 13 7 7 7 5 4 11 6 7 5 6 6 7 6 7
3 5 4 4 1 5 7 13 13 14 11 6 4 6 2 3 4 4 4 6 6 3 3 5 3 2 4 4 3 3 7 8 4 1 13 6 7 3 4 3 5 5 6 8 9
3 4 5 1 3 4 10 14 12 8 16 6 6 4 2 3 4 7 7 6 9 12 17 6 4 2 4 2 4 2 4 10 9 11 14 17 20 5 6 4 5 5 8 12 9
3 3 5 5 5 7 9 9 18 13 5 10 2 4 5 3 5 5 4 7 7 7 3 2 4 2 4 3 3 4 4 6 11 14 7 2 4 4 5 5 4 1 8 10 12
3 2 3 6 7 5 10 6 14 16 8 8 5 9 9 4 7 10 6 6 5 5 5 3 4 2 3 1 2 3 4 6 6 9 9 12 20 2 4 4 5 4 4 9 10
1 2 1 7 3 2 4 7 17 19 8 13 16 11 5 7 5 11 11 13 8 9 6 5 3 1 5 3 2 6 4 3 3 5 4 3 3 3 3 4 6 8 9 9 8
Wind_Direction
9 7 4 1 2 359 354 349 349 348 346 339 339 334 338 299 304 299 267 232 208 228 201 276 212 230 250 214 208 117 113 240 238 223 245 308 189 339 152 120 98 30 136 212 143
8 4 1 358 353 351 348 344 342 341 340 337 335 332 329 327 304 283 253 250 249 248 185 221 219 200 208 213 212 155 172 220 212 224 263 285 205 183 147 146 175 58 34 101 140
5 4 2 357 353 347 343 339 335 333 332 330 328 328 330 327 290 241 148 351 284 206 191 210 257 199 217 192 214 202 218 230 261 266 334 307 293 192 143 201 205 181 170 163 156
2 359 355 352 349 345 341 337 333 329 324 321 321 322 324 290 261 188 331 352 168 155 174 220 256 224 206 216 211 241 221 228 258 260 294 279 279 278 178 211 148 202 175 165 176
359 352 349 347 345 340 336 332 328 323 319 315 313 317 333 251 243 270 293 177 136 208 202 202 230 227 231 220 231 246 242 245 252 252 257 277 245 224 278 272 244 135 163 179 179
354 351 350 346 343 339 333 327 323 317 312 308 307 310 285 262 219 242 247 224 207 191 215 205 206 212 272 239 245 248 241 256 247 246 226 255 264 178 280 263 241 163 179 187 187
349 350 346 343 340 337 330 323 316 310 306 301 301 298 270 248 249 222 240 207 204 199 229 234 253 243 201 247 277 252 260 270 243 221 215 205 255 210 229 231 245 221 200 193 195
348 346 341 339 337 333 328 322 316 308 298 293 289 277 260 280 229 245 247 256 225 221 212 250 262 265 208 262 317 279 262 241 242 216 230 172 246 234 234 222 228 232 206 197 198
344 337 336 337 335 331 326 321 313 308 297 288 279 197 262 293 245 246 240 237 248 247 199 220 220 219 212 204 276 220 248 228 241 224 238 200 253 234 236 221 225 227 221 203 206
337 334 333 334 332 329 326 327 313 307 336 327 184 243 256 270 337 338 264 223 222 230 203 192 210 205 204 198 219 220 215 231 227 215 213 235 242 243 216 208 225 227 224 200 200
337 337 335 332 331 328 331 320 348 330 42 246 268 274 277 276 275 264 298 322 233 235 199 190 195 202 217 219 228 226 213 236 237 227 246 241 249 224 237 266 225 237 223 212 200
332 332 333 331 328 324 330 342 307 299 303 263 251 249 250 265 270 259 244 256 220 225 210 180 212 216 216 219 227 224 231 243 258 242 271 282 271 237 223 241 239 227 226 219 193
331 329 327 329 326 313 337 305 318 29 284 297 247 252 250 216 241 254 188 232 253 236 202 207 204 219 216 212 219 225 225 234 235 185 201 28 284 265 254 247 231 232 226 216 196
331 328 327 326 323 314 300 273 343 82 277 280 255 268 73 320 274 269 227 210 213 260 242 209 215 198 209 214 209 226 222 230 233 197 247 164 267 257 227 238 239 242 222 223 211
328 326 325 324 298 289 283 328 331 28 287 267 275 146 320 105 310 317 310 207 229 227 231 251 214 215 209 209 201 227 236 225 215 208 242 219 247 255 182 240 239 233 233 222 219
328 324 320 317 276 273 282 315 30 237 249 280 306 308 330 324 311 273 265 249 230 242 248 258 226 255 222 217 200 217 115 111 201 221 239 233 215 267 217 233 244 230 222 226 209
329 322 315 302 277 299 343 47 254 216 320 278 303 323 316 303 307 299 262 214 249 203 225 243 241 211 196 218 159 175 192 222 214 208 238 222 201 241 208 239 235 234 226 225 210
327 321 299 286 274 320 41 320 256 248 235 291 314 318 284 304 319 322 359 301 233 244 266 221 266 193 189 213 165 199 201 216 230 188 238 166 214 240 239 252 255 246 224 249 183
330 294 294 278 293 83 317 248 219 255 292 307 314 282 292 338 317 312 271 277 322 340 230 222 230 138 168 198 189 189 214 224 266 165 278 197 280 297 253 230 256 247 206 202 171
316 301 277 285 41 72 216 260 247 277 288 284 270 216 254 295 344 344 267 225 281 257 286 261 237 202 89 94 201 193 167 195 205 243 254 228 239 229 266 235 244 229 200 161 146
12 325 262 13 54 67 246 245 288 292 305 291 283 272 259 280 222 283 271 294 357 326 325 329 288 297 129 199 181 165 205 211 169 209 234 250 243 219 254 267 236 231 196 153 136
286 285 258 53 11 238 265 247 302 300 297 275 243 248 258 264 262 232 249 248 14 54 341 275 220 284 137 130 123 153 215 193 205 233 227 182 250 180 211 256 276 227 162 125 111
257 273 313 90 288 296 280 285 289 293 295 299 271 243 205 315 283 256 291 295 335 34 25 327 288 326 352 22 36 219 204 220 214 34 226 178 257 338 298 303 286 159 117 113 112
281 278 314 233 209 239 307 304 304 288 292 271 274 286 285 284 254 283 293 309 345 301 294 274 294 175 203 168 164 250 253 212 211 230 248 231 246 326 324 303 315 102 123 125 125
228 263 196 281 297 292 301 285 300 322 298 289 291 243 281 272 325 259 282 313 300 310 30 246 271 237 265 218 159 216 216 224 228 240 250 272 227 274 272 237 217 198 117 132 136
249 220 329 262 280 269 300 277 300 315 318 301 276 335 313 250 206 276 286 294 263 345 350 312 275 353 275 286 176 284 257 251 253 256 250 251 274 153 326 267 121 148 136 162 165
291 253 221 269 283 274 261 303 307 311 297 300 307 308 300 268 244 278 270 268 261 286 288 258 260 336 277 316 286 344 310 280 295 18 310 262 309 171 216 218 190 187 178 175 184